Wind_Speed
67 73 81 82 80 80 80 79 77 75 82 88 90 90 95 98 100 99 104 99 73 54 49 49 47 56 62 58 57 78 94 80 92 90 82 81 83 77 71 62 65 70 72
71 78 80 78 79 80 79 82 74 78 86 90 90 93 95 100 102 108 101 76 55 48 47 50 43 51 54 60 61 76 97 85 66 70 78 71 89 82 80 80 74 68 72
75 82 78 78 80 80 79 81 78 82 87 90 95 99 101 101 106 100 75 57 46 41 43 48 48 49 53 62 67 58 97 82 83 90 82 85 82 79 76 75 80 70 86
79 80 78 78 80 80 81 79 80 82 86 92 97 102 103 102 94 71 56 52 41 39 43 49 50 49 55 66 67 61 91 101 90 88 96 94 82 79 77 86 86 64 61
78 79 76 78 79 79 80 77 80 84 89 96 101 102 104 93 65 61 56 44 35 38 44 47 47 50 59 67 71 65 75 103 87 89 90 85 90 86 90 70 76 70 68
77 78 78 78 78 77 79 78 80 87 94 100 102 102 98 69 59 56 48 34 33 40 40 39 44 49 62 65 74 67 89 105 87 74 98 85 82 80 79 79 76 81 61
77 78 76 76 76 77 78 79 82 89 96 98 100 99 85 56 58 48 38 34 38 43 37 36 39 45 58 65 74 72 88 115 91 81 77 75 70 74 73 72 78 75 78
78 77 75 76 74 76 77 82 84 91 95 99 99 90 67 57 50 43 34 33 37 40 32 33 40 43 56 65 70 70 75 110 89 74 73 84 85 79 77 73 73 72 70
77 76 73 73 73 76 77 82 86 90 95 99 96 78 55 55 46 37 29 32 37 33 27 31 42 47 52 61 63 68 84 95 93 85 94 92 85 77 80 81 77 72 72
75 74 70 69 73 75 79 83 87 90 95 95 85 64 58 54 41 33 34 32 36 32 26 31 42 45 50 52 57 69 92 86 90 100 79 81 82 76 82 84 75 70 69
76 73 68 69 74 75 79 82 87 90 94 89 74 54 58 51 38 36 38 42 31 29 28 35 42 42 45 52 64 74 82 76 77 83 74 73 73 78 81 77 75 67 71
73 69 66 71 73 75 78 82 88 91 91 83 64 47 56 48 39 38 38 38 29 28 30 35 40 37 50 63 78 75 81 70 80 89 87 81 81 67 77 76 74 69 62
69 66 65 68 71 74 79 83 87 89 88 76 58 43 51 43 40 37 34 36 34 25 31 37 40 39 55 63 71 79 84 73 86 89 79 68 71 69 73 74 67 66 63
63 61 61 64 70 74 79 85 89 86 83 69 54 43 47 35 38 37 34 31 30 21 32 39 39 42 53 64 71 81 78 70 79 77 79 70 75 77 73 70 79 71 66
57 56 59 62 68 73 80 83 87 86 79 63 53 46 45 36 30 35 28 25 22 23 32 38 38 43 53 66 63 78 80 79 74 74 72 78 76 78 81 68 66 75 68
51 53 55 57 65 71 76 81 83 79 69 56 50 47 47 36 32 30 25 21 13 22 33 38 38 46 53 65 64 68 75 76 74 74 76 80 81 85 80 79 75 77 75
49 49 51 54 61 67 71 75 77 64 57 51 45 44 47 33 28 26 20 12 10 23 33 37 40 48 56 71 67 73 73 76 76 78 76 81 81 78 80 82 75 79 71
43 46 48 53 59 64 69 71 74 60 45 45 39 40 46 36 27 17 9 5 10 26 33 33 34 46 56 61 64 62 71 72 81 78 72 72 75 79 86 83 83 84 80
41 46 48 51 56 61 65 68 68 51 43 42 34 36 42 42 24 11 5 3 11 24 29 28 27 31 54 58 63 63 72 77 77 73 73 72 76 72 79 82 80 78 74
43 47 48 52 54 59 62 64 61 42 38 40 34 28 32 34 28 18 8 7 13 23 32 31 29 29 48 64 66 67 70 79 78 75 71 71 76 73 72 75 80 78 79
43 46 49 51 52 55 59 63 55 36 36 37 34 26 27 32 22 15 10 11 13 20 31 34 34 31 43 70 72 71 72 73 81 78 76 74 77 75 76 74 76 72 74
41 46 49 48 50 54 58 64 56 35 32 33 34 29 24 26 27 18 11 14 18 17 24 36 36 34 35 60 77 74 72 73 78 72 67 71 79 70 83 78 79 72 76
42 46 47 46 49 54 59 65 54 37 31 30 31 31 24 20 23 20 13 10 16 19 19 29 38 39 37 45 74 75 74 71 72 72 66 71 71 71 79 79 76 77 74
42 45 44 46 49 54 60 64 53 38 32 28 27 29 27 19 16 19 15 10 9 16 23 23 32 38 41 39 64 69 75 72 70 72 77 75 73 75 79 75 78 77 76
47 46 44 45 49 54 58 60 50 37 31 28 25 25 27 24 17 12 16 11 8 11 15 25 23 32 39 43 44 57 66 70 70 66 70 75 72 73 74 78 78 76 80
48 47 45 46 49 54 56 52 47 36 29 28 23 21 20 23 20 16 10 10 8 9 12 16 21 26 33 33 39 55 60 66 65 65 66 70 73 74 74 75 74 75 71
Wind_Direction
303 303 302 302 304 306 308 308 307 311 315 316 316 315 314 313 312 311 310 308 299 280 260 253 258 252 244 237 228 205 199 194 190 196 198 205 215 216 209 212 221 221 210
302 300 303 303 305 307 308 307 305 311 316 317 316 314 314 314 313 312 310 303 287 269 259 254 264 256 239 224 218 209 206 202 191 199 202 209 207 210 211 210 213 217 224
301 302 300 303 305 307 307 307 308 314 319 316 315 316 316 316 314 312 307 295 283 265 259 258 261 249 230 220 217 212 209 203 201 196 209 207 207 209 205 214 214 219 216
300 301 300 303 306 307 307 310 313 319 317 316 317 316 316 316 315 307 301 294 278 266 261 258 262 240 227 220 215 217 208 195 193 189 191 197 202 199 204 214 215 215 220
299 300 300 302 305 308 308 312 317 318 318 317 317 318 318 318 310 305 302 291 274 273 270 266 248 241 226 217 210 214 215 199 191 192 194 200 201 204 212 212 211 218 222
299 302 301 304 306 306 308 313 317 316 317 317 319 321 319 315 307 308 299 283 282 288 272 255 253 236 216 211 208 209 213 206 192 188 191 192 201 206 207 209 211 218 214
303 303 301 303 305 306 310 313 316 316 318 320 322 321 322 314 312 310 296 282 284 293 271 257 242 223 208 207 208 209 211 203 189 195 183 192 199 206 214 216 210 210 204
305 302 301 303 305 308 312 314 316 318 321 324 322 322 322 318 318 311 297 290 288 293 271 252 226 216 207 202 205 212 203 203 194 197 187 205 207 211 212 216 209 209 212
303 301 301 303 307 308 311 314 317 321 324 324 323 324 322 326 321 310 298 293 298 287 263 243 219 207 205 204 213 205 194 197 198 200 204 211 210 213 209 217 207 208 214
301 299 301 306 307 308 312 316 320 324 325 325 325 324 325 327 322 308 303 295 299 278 258 229 213 206 212 218 210 193 178 186 193 196 193 196 202 203 211 211 208 211 207
302 300 304 306 305 310 314 318 322 325 326 326 327 324 328 324 321 314 309 310 287 268 248 218 213 212 213 204 184 186 182 188 186 187 194 196 202 204 206 208 210 208 209
299 300 303 304 307 311 317 320 323 326 328 327 327 325 330 323 319 316 309 313 292 269 236 217 211 215 201 183 179 184 186 185 187 190 198 197 200 197 205 206 202 203 203
298 298 301 304 308 314 316 321 325 327 329 328 327 326 334 323 318 315 314 314 302 259 219 208 205 204 185 182 183 184 182 185 190 190 186 190 193 194 194 198 203 203 210
295 297 301 306 310 313 318 322 325 329 329 329 326 326 339 328 313 313 317 311 305 233 203 202 201 196 177 183 187 191 188 182 182 188 193 193 187 194 204 199 202 203 207
294 298 304 309 311 316 320 323 326 330 329 330 328 330 341 330 318 316 316 310 298 216 198 196 197 192 179 178 184 185 191 192 190 187 189 188 189 195 196 203 210 210 209
297 302 306 310 311 318 322 327 329 329 328 327 327 330 340 331 322 318 319 313 279 210 193 190 196 193 182 181 188 192 189 193 195 201 202 202 199 198 202 204 207 211 211
298 302 306 311 316 320 325 328 330 327 328 326 325 328 337 336 325 325 316 305 259 204 193 191 197 194 187 186 189 189 192 191 192 197 200 203 202 200 202 205 205 205 212
299 303 311 315 320 323 327 328 330 328 327 326 323 328 337 339 336 326 313 282 222 194 190 193 200 200 199 187 187 192 193 194 196 196 195 198 202 204 206 204 207 209 215
303 308 315 321 322 325 328 328 329 328 327 329 324 327 335 332 334 324 283 261 204 188 191 196 204 208 202 192 190 195 195 195 198 195 196 199 205 208 204 204 207 210 212
307 312 318 321 324 327 329 330 332 325 325 329 323 319 330 335 326 318 278 245 227 208 205 210 211 213 207 194 195 199 199 195 196 196 198 201 204 206 206 209 211 214 217
308 314 319 322 324 328 332 334 336 323 323 326 327 317 326 338 330 314 263 234 237 230 217 218 220 214 216 196 194 200 202 203 203 198 197 199 200 204 203 208 213 218 220
313 318 321 322 325 329 335 335 337 321 322 326 328 328 322 336 340 331 295 238 236 238 229 219 219 217 223 213 194 199 201 204 203 200 202 200 201 208 209 212 216 215 217
313 320 324 324 325 329 332 336 335 324 316 322 324 327 320 321 339 336 318 279 242 237 237 228 224 222 224 228 196 200 201 204 206 208 207 204 205 210 207 210 212 216 220
310 322 327 325 324 326 328 333 332 323 316 318 319 322 322 308 318 342 329 310 261 239 234 228 220 225 226 233 215 203 201 201 207 208 208 210 208 212 210 212 211 216 218
311 313 322 324 322 325 327 331 329 322 317 315 319 321 317 315 295 319 342 326 287 243 225 219 223 223 219 227 223 206 202 201 205 209 211 211 208 208 210 209 215 219 220
313 314 320 324 320 323 327 327 323 320 315 314 315 316 316 317 312 290 299 335 321 263 235 220 227 227 223 223 216 210 208 202 202 206 209 211 212 210 210 215 215 214 214
Height
5568 5558 5547 5536 5525 5514 5504 5494 5484 5474 5461 5449 5436 5421 5405 5390 5374 5359 5346 5333 5324 5323 5324 5329 5333 5335 5341 5352 5358 5369 5384 5401 5425 5447 5470 5494 5516 5532 5547 5561 5571 5583 5591
5551 5541 5529 5519 5509 5497 5486 5474 5462 5452 5439 5424 5409 5394 5380 5363 5345 5327 5313 5302 5298 5300 5303 5309 5315 5315 5320 5334 5345 5357 5366 5387 5405 5430 5454 5473 5497 5510 5532 5546 5559 5566 5576
5535 5524 5510 5500 5490 5477 5466 5455 5444 5435 5420 5404 5388 5371 5353 5333 5315 5297 5284 5278 5277 5279 5284 5289 5295 5297 5304 5317 5329 5342 5353 5372 5397 5415 5437 5459 5480 5499 5517 5528 5544 5556 5563
5515 5505 5495 5483 5471 5460 5449 5438 5427 5414 5400 5384 5365 5348 5327 5307 5287 5273 5265 5262 5260 5262 5266 5270 5274 5280 5288 5301 5312 5326 5339 5357 5378 5399 5417 5440 5459 5482 5500 5513 5525 5536 5549
5498 5486 5475 5465 5455 5445 5433 5420 5408 5394 5378 5361 5345 5327 5304 5282 5265 5257 5250 5246 5246 5247 5248 5250 5253 5260 5268 5282 5297 5310 5321 5338 5361 5383 5405 5423 5442 5461 5477 5498 5515 5524 5539
5479 5469 5460 5452 5440 5427 5415 5401 5388 5375 5359 5341 5322 5304 5284 5264 5251 5242 5234 5234 5234 5233 5231 5231 5233 5236 5246 5263 5279 5294 5306 5323 5348 5367 5391 5412 5435 5455 5471 5487 5500 5512 5523
5462 5453 5445 5434 5421 5410 5398 5385 5374 5359 5342 5323 5302 5283 5264 5247 5236 5229 5223 5223 5223 5220 5217 5217 5217 5223 5232 5247 5263 5279 5291 5308 5336 5359 5372 5397 5425 5445 5460 5474 5490 5508 5522
5447 5436 5427 5417 5406 5396 5385 5373 5360 5344 5325 5304 5284 5264 5248 5235 5223 5216 5212 5213 5212 5208 5204 5204 5206 5214 5224 5236 5251 5265 5279 5300 5329 5347 5363 5386 5405 5432 5452 5471 5490 5504 5512
5429 5420 5411 5403 5394 5383 5372 5360 5346 5329 5308 5286 5265 5246 5233 5222 5211 5206 5203 5203 5201 5197 5195 5194 5197 5206 5216 5228 5240 5252 5271 5298 5318 5335 5356 5378 5399 5419 5438 5450 5464 5480 5495
5413 5404 5396 5390 5381 5370 5357 5345 5332 5315 5295 5272 5252 5233 5220 5210 5203 5197 5194 5194 5191 5188 5188 5188 5192 5199 5206 5218 5227 5243 5269 5292 5312 5334 5355 5373 5391 5410 5426 5444 5461 5476 5489
5400 5392 5383 5376 5367 5356 5344 5331 5318 5301 5280 5258 5241 5227 5214 5201 5196 5191 5186 5181 5178 5178 5180 5183 5187 5191 5198 5207 5222 5244 5272 5289 5303 5324 5343 5361 5380 5399 5413 5431 5450 5465 5480
5385 5377 5370 5361 5352 5342 5330 5317 5303 5287 5268 5246 5232 5221 5207 5194 5188 5183 5176 5170 5168 5168 5170 5176 5182 5187 5194 5208 5228 5247 5263 5278 5296 5317 5335 5353 5371 5386 5406 5424 5442 5458 5474
5370 5361 5353 5344 5336 5327 5313 5303 5292 5275 5254 5236 5223 5214 5202 5187 5181 5175 5169 5162 5157 5156 5161 5169 5176 5183 5197 5213 5227 5240 5258 5273 5291 5310 5328 5347 5365 5383 5401 5418 5435 5447 5460
5352 5346 5338 5331 5321 5310 5299 5286 5273 5262 5242 5226 5214 5205 5195 5182 5175 5169 5163 5156 5149 5148 5156 5166 5176 5183 5194 5210 5227 5241 5257 5273 5290 5307 5325 5344 5359 5374 5390 5405 5419 5433 5445
5339 5333 5325 5318 5309 5298 5284 5274 5260 5243 5227 5214 5203 5193 5183 5176 5171 5164 5158 5151 5145 5146 5155 5163 5173 5181 5191 5207 5224 5242 5257 5274 5289 5305 5320 5335 5350 5365 5381 5396 5405 5421 5435
5328 5321 5314 5306 5296 5288 5277 5257 5241 5229 5218 5206 5196 5186 5181 5171 5165 5159 5155 5149 5145 5147 5155 5164 5172 5182 5189 5203 5217 5235 5253 5268 5285 5300 5317 5332 5345 5360 5374 5388 5400 5413 5427
5316 5310 5303 5293 5285 5275 5265 5256 5244 5222 5209 5201 5192 5184 5176 5168 5162 5157 5153 5151 5148 5151 5157 5167 5175 5185 5193 5207 5219 5235 5248 5263 5278 5294 5310 5324 5338 5351 5365 5379 5390 5404 5415
5305 5299 5293 5282 5272 5263 5253 5243 5233 5221 5212 5201 5189 5181 5173 5166 5161 5156 5154 5153 5152 5156 5161 5169 5178 5187 5194 5204 5215 5228 5242 5257 5272 5287 5302 5316 5330 5342 5356 5367 5381 5395 5406
5294 5289 5281 5272 5263 5252 5243 5233 5223 5212 5204 5198 5189 5180 5172 5164 5159 5155 5155 5155 5156 5160 5165 5172 5177 5184 5191 5201 5213 5224 5236 5250 5267 5280 5294 5308 5322 5334 5347 5360 5372 5385 5395
5284 5277 5270 5262 5253 5243 5234 5224 5214 5204 5199 5192 5185 5180 5174 5167 5161 5156 5154 5155 5157 5161 5164 5169 5174 5178 5184 5194 5207 5219 5230 5244 5257 5272 5286 5300 5314 5327 5339 5351 5363 5374 5386
5273 5267 5260 5252 5244 5235 5226 5217 5207 5198 5192 5187 5181 5175 5169 5163 5159 5155 5153 5153 5155 5158 5162 5165 5169 5174 5180 5188 5201 5214 5225 5236 5248 5262 5276 5290 5304 5317 5329 5341 5352 5363 5372
5262 5256 5248 5241 5234 5227 5219 5211 5200 5193 5187 5181 5176 5171 5166 5161 5156 5152 5150 5150 5152 5153 5157 5162 5165 5170 5176 5182 5193 5205 5216 5227 5240 5254 5267 5279 5294 5306 5319 5330 5340 5349 5359
5251 5245 5238 5232 5226 5219 5212 5204 5194 5187 5182 5178 5173 5168 5163 5160 5156 5151 5148 5147 5147 5148 5150 5153 5159 5164 5169 5173 5184 5195 5208 5219 5231 5244 5257 5271 5283 5293 5306 5317 5328 5338 5347
5241 5235 5229 5223 5217 5210 5204 5197 5189 5182 5177 5173 5169 5164 5159 5156 5154 5150 5146 5144 5143 5144 5145 5147 5152 5157 5163 5167 5176 5188 5198 5210 5221 5234 5246 5259 5271 5282 5292 5302 5313 5324 5333
5231 5226 5220 5214 5208 5202 5196 5191 5184 5178 5173 5168 5165 5161 5156 5151 5150 5149 5146 5143 5141 5141 5141 5144 5147 5151 5158 5163 5169 5180 5189 5199 5210 5221 5232 5244 5254 5264 5275 5285 5296 5307 5316
5220 5215 5211 5205 5199 5194 5189 5184 5178 5172 5168 5163 5160 5156 5153 5149 5146 5145 5144 5142 5140 5139 5139 5140 5143 5145 5150 5156 5163 5173 5180 5189 5199 5208 5218 5228 5238 5247 5256 5267 5278 5289 5298